STARLINK-35923

Last updated on Wed Dec 31 2025 00:02:07 GMT+0000 (Coordinated Universal Time)

1 66641U 25271AA 25364.56617726 .00101116 00000+0 25065-2 0 9999 2 66641 53.1603 102.4183 0001227 63.2604 296.8527 15.39595295 6968
UTC large
Height (km)
Speed (km/s)
/
Latitude / Longitude
Inclination (degrees)
Orbital Period (minutes)
Azimuth
Elevation
Range (km)
Doppler Factor

Next 0 passes for location: London (51.5072 / 0.1276)

Sorry there are no passes over London.